Weather History for KATL - January, 2014

Change the Weather History Date:

Thursday, January 30, 2014

  Actual Average Record
Temperature  
Mean Temperature 27 °F 44 °F  
Max Temperature 40 °F 54 °F 76 °F (1950)
Min Temperature 13 °F 35 °F -3 °F (1966)
Degree Days  
Heating Degree Days 38 21  
Month to date heating degree days 836 652  
Since 1 July heating degree days 1886 1733  
Cooling Degree Days 0 0  
Month to date cooling degree days 0 0  
Year to date cooling degree days 0 0  
Moisture  
Dew Point 8 °F    
Average Humidity 48    
Maximum Humidity 62    
Minimum Humidity 33    
Precipitation  
Precipitation 0.00 in 0.16 in 1.87 in (1960)
Month to date precipitation 3.35 4.04  
Year to date precipitation 3.35 4.04  
Snow  
Snow 0.00 in 0.10 in 0.00 in (2002)
Month to date snowfall 2.6 1.3  
Since 1 July snowfall 3.0 1.7  
Snow Depth 2.00 in    
Sea Level Pressure  
Sea Level Pressure 30.30 in    
Wind  
Wind Speed 4 mph (East)    
Max Wind Speed 10 mph    
Max Gust Speed 12 mph    
Visibility 10 miles    
Events      
T = Trace of Precipitation, MM = Missing Value Source: NWS Daily Summary

Daily Weather History Graph

Daily Weather History Graph

Search for Another Location

Airport or City:

Trip Planner

Search our weather history database for the weather conditions in past years. The results will help you decide how hot, cold, wet, or windy it might be!

Date:

Astronomy

Jan. 30, 2014 Rise Set
Actual Time 7:35 AM EST 6:07 PM EST
Civil Twilight 7:09 AM EST 6:33 PM EST
Nautical Twilight 6:39 AM EST 7:03 PM EST
Astronomical Twilight 6:09 AM EST 7:32 PM EST
Moon 7:02 AM EST 6:14 PM EST
Length of Visible Light 11h 24m
Length of Day
10h 31m
Waning Crescent, 0% of the Moon is Illuminated
Jan 30
Waning Crescent
Jan 30
New
Feb 6
First Quarter
Feb 14
Full
Feb 22
Last Quarter

Hourly Weather History & Observations

Time (EST) Temp. Windchill Dew Point Humidity Pressure Visibility Wind Dir Wind Speed Gust Speed Precip Events Conditions
12:52 AM 18.0 °F - -0.9 °F 44% 30.35 in 10.0 mi Calm Calm - N/A   Clear
1:52 AM 18.0 °F 12.7 °F -0.9 °F 44% 30.35 in 10.0 mi NNW 3.5 mph - N/A   Clear
2:52 AM 15.1 °F 7.7 °F -0.0 °F 51% 30.34 in 10.0 mi NNW 4.6 mph - N/A   Clear
3:52 AM 17.1 °F - 1.0 °F 50% 30.33 in 10.0 mi Calm Calm - N/A   Clear
4:52 AM 16.0 °F 10.4 °F 1.9 °F 54% 30.33 in 10.0 mi NE 3.5 mph - N/A   Clear
5:52 AM 14.0 °F - 1.0 °F 56% 30.34 in 10.0 mi Calm Calm - N/A   Clear
6:52 AM 14.0 °F - 1.9 °F 59% 30.35 in 10.0 mi Calm Calm - N/A   Partly Cloudy
7:52 AM 16.0 °F 10.4 °F 3.0 °F 57% 30.35 in 10.0 mi East 3.5 mph - N/A   Partly Cloudy
8:52 AM 19.0 °F 11.1 °F 6.1 °F 57% 30.36 in 10.0 mi East 5.8 mph - N/A   Partly Cloudy
9:52 AM 25.0 °F 17.1 °F 14.0 °F 63% 30.39 in 10.0 mi ESE 6.9 mph - N/A   Partly Cloudy
10:52 AM 28.9 °F 21.1 °F 15.1 °F 56% 30.37 in 10.0 mi East 8.1 mph - N/A   Clear
11:52 AM 32.0 °F 26.4 °F 12.0 °F 44% 30.36 in 10.0 mi ESE 5.8 mph - N/A   Partly Cloudy
12:52 PM 33.1 °F 26.9 °F 10.9 °F 40% 30.31 in 10.0 mi East 6.9 mph - N/A   Partly Cloudy
1:52 PM 36.0 °F 33.3 °F 12.0 °F 37% 30.28 in 10.0 mi SE 3.5 mph - N/A   Partly Cloudy
2:52 PM 37.0 °F 34.5 °F 12.0 °F 36% 30.25 in 10.0 mi Variable 3.5 mph - N/A   Partly Cloudy
3:52 PM 37.9 °F 35.5 °F 12.0 °F 35% 30.22 in 10.0 mi ESE 3.5 mph - N/A   Partly Cloudy
4:52 PM 39.9 °F 36.7 °F 12.0 °F 32% 30.22 in 10.0 mi ESE 4.6 mph - N/A   Partly Cloudy
5:52 PM 37.9 °F 34.4 °F 12.0 °F 35% 30.21 in 10.0 mi SE 4.6 mph - N/A   Partly Cloudy
6:52 PM 36.0 °F - 12.9 °F 39% 30.21 in 10.0 mi Calm Calm - N/A   Partly Cloudy
7:52 PM 35.1 °F 32.2 °F 14.0 °F 42% 30.23 in 10.0 mi East 3.5 mph - N/A   Partly Cloudy
8:52 PM 33.1 °F 30.0 °F 14.0 °F 46% 30.25 in 10.0 mi East 3.5 mph - N/A   Partly Cloudy
9:52 PM 32.0 °F 27.5 °F 14.0 °F 48% 30.25 in 10.0 mi ESE 4.6 mph - N/A   Partly Cloudy
10:52 PM 30.0 °F - 15.1 °F 54% 30.23 in 10.0 mi Calm Calm - N/A   Partly Cloudy
11:52 PM 30.0 °F 26.5 °F 16.0 °F 56% 30.23 in 10.0 mi ESE 3.5 mph - N/A   Partly Cloudy